Wetbulb
61.25 57.92 55.80 54.11 41.46 37.79 34.66 39.58 43.10 44.53 47.51 54.35 65.20 65.14 63.32 64.96 63.59 58.85 72.48 75.34 75.91 75.84 76.77 77.18 77.38 77.18 77.13 76.75 76.19 76.04 76.17 76.24 76.32 76.34 76.50 76.90 76.87 76.57 76.53 76.23 75.95 75.41 74.10 73.82 74.12 73.71 73.26 72.89 72.80
60.20 58.03 53.22 47.10 37.19 32.16 34.93 41.47 44.00 46.02 52.21 54.51 66.57 66.41 65.00 63.55 68.66 70.11 72.54 75.51 75.74 75.72 76.07 76.72 77.51 77.01 76.93 76.70 76.31 75.76 75.96 76.26 76.36 76.41 76.45 76.57 76.69 76.42 76.05 75.93 75.65 74.50 73.87 73.95 73.94 73.24 72.62 72.18 72.48
58.48 56.64 47.43 41.64 34.77 33.74 35.53 42.66 44.87 48.83 49.33 49.83 50.75 64.03 64.30 63.43 67.45 67.86 74.12 75.50 75.36 74.89 75.55 76.75 77.48 76.98 77.08 76.67 76.26 75.96 76.11 76.16 76.26 76.47 76.50 76.35 76.27 76.39 75.97 75.53 75.32 74.27 73.75 73.71 73.62 72.84 72.02 71.93 73.10
53.03 48.44 45.90 40.10 36.54 41.38 42.65 46.88 47.13 47.75 49.56 49.27 51.30 56.73 61.23 67.23 64.85 72.35 75.60 75.62 74.38 74.17 75.10 77.38 77.32 77.22 77.03 76.77 76.42 75.98 76.33 76.36 76.42 76.47 76.55 76.20 75.85 75.89 75.57 75.35 75.23 74.83 73.96 73.83 73.48 72.61 72.65 73.06 73.60
50.29 43.88 38.28 35.35 37.78 42.03 45.13 46.59 47.49 45.66 46.20 48.01 53.48 54.17 55.37 60.07 66.94 75.32 75.23 75.03 73.73 74.11 75.13 76.74 77.45 77.40 77.25 76.98 76.29 76.31 76.38 76.25 76.31 76.62 76.47 76.34 76.04 75.71 75.39 75.17 75.02 74.76 74.34 73.88 73.06 73.07 72.85 72.96 73.34
42.90 42.01 35.56 33.43 37.68 42.50 44.89 46.20 46.73 45.88 47.01 48.68 50.51 51.38 52.05 55.94 56.44 64.23 74.82 74.36 75.15 74.45 75.12 76.35 77.40 77.24 77.04 76.82 76.26 76.01 76.05 76.13 76.33 76.31 76.31 76.23 75.87 75.75 75.42 75.20 74.93 75.30 74.87 74.39 73.78 73.41 72.97 72.97 73.48
41.29 38.82 35.02 34.98 38.78 41.36 44.58 46.81 45.73 45.73 46.06 47.84 49.64 48.86 50.20 51.71 52.84 58.61 72.90 74.54 74.67 74.82 74.59 75.27 76.22 76.73 77.04 76.46 76.08 76.11 75.92 75.95 76.09 75.99 75.99 75.79 75.77 75.40 75.06 75.04 75.07 74.92 74.83 74.30 73.80 73.30 73.10 73.38 73.60
43.60 39.89 35.61 35.47 38.36 38.82 45.06 46.12 44.65 46.36 47.00 51.37 51.86 46.24 44.62 50.91 53.07 58.64 71.86 72.63 73.21 73.48 74.06 74.72 75.44 75.65 75.43 75.21 76.31 76.18 76.00 75.95 75.86 75.91 75.91 75.41 75.29 75.10 74.66 73.98 74.51 75.02 74.67 74.23 73.48 73.32 73.10 73.31 73.63
43.98 36.68 32.70 35.52 39.87 41.68 44.76 44.58 48.57 49.68 47.73 48.48 49.53 49.05 51.55 54.12 52.52 52.47 67.56 70.90 71.38 72.04 71.26 73.19 74.65 74.53 74.78 74.74 75.38 75.90 76.17 76.01 75.87 75.65 75.55 74.12 72.23 72.51 72.98 73.54 74.41 75.09 74.87 74.13 73.50 73.25 72.93 73.50 73.73
41.33 35.11 36.92 41.70 43.35 41.02 43.84 44.66 45.81 47.49 46.97 47.69 49.25 52.15 53.95 53.56 51.96 50.09 50.43 64.81 69.47 70.37 70.88 72.58 73.40 73.40 74.06 74.83 74.44 74.26 74.06 74.40 73.64 73.42 73.06 71.89 70.29 70.50 72.12 73.02 74.51 75.04 74.79 74.18 73.53 73.23 73.17 74.03 71.77
41.60 39.30 42.49 45.23 46.60 45.86 44.02 44.46 47.11 45.35 43.95 47.02 47.59 50.58 52.00 52.14 49.89 50.53 50.39 50.99 66.70 70.93 70.72 71.24 72.15 72.53 72.90 73.54 73.89 73.74 73.23 73.10 72.09 71.90 71.36 69.57 69.57 69.59 70.28 69.26 70.84 71.24 73.11 69.79 70.90 70.39 70.51 71.30 70.85
39.31 44.39 44.85 45.47 46.65 44.68 44.75 45.73 45.70 45.65 46.59 49.69 49.96 50.90 51.93 51.06 49.27 49.55 49.35 49.93 60.18 69.46 69.76 69.45 70.56 70.46 70.33 73.04 73.12 72.87 72.62 72.13 70.89 70.73 70.52 67.93 66.79 66.92 66.85 67.43 68.88 69.13 68.04 67.82 67.23 66.93 69.15 70.93 70.66
41.11 44.46 47.20 47.30 45.82 45.18 46.50 45.27 44.82 44.78 48.40 49.61 50.00 50.69 50.59 51.07 50.96 50.55 51.06 51.37 65.10 69.19 69.30 68.56 68.64 67.89 67.36 71.78 71.77 71.96 71.76 71.38 70.84 70.21 70.28 68.57 66.56 66.52 66.45 67.56 67.77 67.70 65.67 64.25 64.22 66.83 70.11 70.23 67.94
44.93 46.25 46.56 46.06 46.20 45.52 44.46 45.71 45.27 47.56 49.41 49.41 49.63 48.90 49.46 50.92 51.54 51.81 52.20 52.13 57.19 69.41 69.73 69.38 69.12 69.12 69.37 71.14 70.33 71.13 71.31 70.91 70.25 69.82 69.60 68.94 66.75 66.72 66.22 67.36 67.08 66.07 64.14 64.09 64.30 66.14 69.70 69.30 67.41
46.04 43.56 45.29 45.92 46.66 43.99 46.20 43.37 44.62 48.88 49.24 48.31 48.17 48.91 50.11 52.75 52.78 51.93 52.98 54.24 53.73 64.57 70.41 70.42 69.00 68.82 68.61 69.23 68.65 68.34 70.22 70.76 70.02 69.51 69.55 69.63 67.53 66.54 66.79 67.13 66.82 65.98 64.18 64.01 65.88 67.76 71.12 69.17 67.63
43.05 41.04 36.74 44.25 46.22 47.10 45.31 38.78 45.40 48.52 47.64 47.88 49.17 49.66 50.39 50.69 52.33 53.16 53.58 53.47 54.79 56.71 69.34 70.39 71.16 68.01 67.27 69.86 68.91 67.28 67.68 68.12 69.11 69.37 69.41 69.87 69.36 67.58 67.38 66.43 66.39 66.98 65.21 66.31 67.47 69.47 69.39 68.86 67.80
38.87 34.57 36.93 40.62 45.32 45.34 43.91 40.57 46.16 48.63 47.54 47.28 47.18 48.02 49.34 49.67 50.73 51.77 53.10 52.34 54.84 57.50 61.11 69.54 70.58 69.37 68.56 68.53 70.00 68.13 67.37 67.62 67.07 68.03 68.56 69.63 69.78 69.25 68.04 66.78 66.42 65.49 67.25 68.05 67.75 68.32 69.30 67.95 67.26
34.48 34.98 36.44 37.38 43.14 43.79 41.37 41.27 45.08 47.24 47.06 47.00 47.22 48.06 47.96 48.46 49.64 51.74 53.41 54.03 52.65 54.80 55.95 61.77 69.96 69.95 70.75 70.36 69.60 68.97 68.52 68.35 68.18 67.53 68.47 69.40 69.70 69.05 68.35 67.18 66.61 65.85 67.12 67.55 67.33 68.07 68.23 68.16 68.04
40.24 38.32 37.35 40.36 44.12 41.74 40.65 40.75 44.62 45.95 45.51 45.22 45.89 46.61 47.33 48.84 51.52 51.49 53.14 55.29 54.74 53.93 54.88 54.19 59.47 66.51 68.85 68.11 67.07 67.43 68.70 69.03 70.58 68.81 69.10 69.14 69.05 68.91 68.53 66.98 67.09 68.61 67.93 67.46 68.05 68.11 67.46 67.23 66.40
40.79 37.77 37.10 41.12 44.68 42.94 41.23 42.18 45.39 46.76 45.52 45.77 46.78 48.38 48.00 47.88 49.77 51.63 52.28 53.85 55.04 55.05 55.18 55.47 55.05 56.33 65.05 68.99 68.45 67.86 68.25 69.08 69.17 69.80 69.54 69.68 68.88 68.83 68.61 67.12 66.83 68.53 67.82 66.54 68.17 67.95 67.03 66.74 63.89
38.87 37.67 37.96 38.62 42.47 42.27 41.16 39.27 40.83 45.91 46.70 48.34 49.21 48.36 48.35 48.83 49.05 51.18 51.99 52.00 54.19 54.88 55.28 56.60 58.10 56.75 57.88 66.94 68.34 66.30 66.53 66.69 67.37 67.75 68.25 68.24 69.20 68.91 67.76 67.46 68.00 68.62 68.23 67.72 68.52 67.98 67.58 64.25 63.57
36.32 42.90 42.43 41.35 38.19 32.28 40.79 30.82 39.49 42.35 45.30 47.20 48.14 46.99 47.11 48.48 49.15 49.15 49.82 48.82 49.84 53.08 54.86 56.39 57.60 57.87 59.93 60.05 66.97 67.35 67.21 66.15 66.22 67.54 68.94 68.47 68.50 68.47 68.63 67.94 69.58 68.95 69.42 68.74 68.85 68.63 66.94 63.84 62.17
40.05 44.17 41.82 41.35 37.33 32.61 36.42 31.16 36.08 42.52 42.59 44.80 46.66 47.51 46.25 46.46 47.24 47.95 49.01 51.70 52.79 52.65 52.74 54.12 55.92 57.30 58.57 59.64 64.28 67.55 65.91 67.17 67.35 65.85 66.78 68.40 68.22 68.13 68.99 69.32 69.85 69.01 68.74 68.56 68.97 68.22 66.94 63.13 61.93
45.97 41.11 39.49 37.09 33.65 27.64 35.16 33.38 32.82 38.20 41.69 43.87 45.60 46.17 47.08 47.92 48.91 49.82 50.53 51.51 51.62 51.00 51.69 52.18 52.70 55.22 58.77 59.27 60.81 65.09 66.43 66.76 66.69 66.32 66.19 67.18 67.64 68.52 68.67 68.85 69.27 69.41 68.49 68.58 68.72 69.06 67.82 64.72 62.22
41.33 34.15 27.20 26.76 26.13 26.79 36.35 33.80 34.74 42.33 45.02 45.76 45.11 45.85 46.78 47.84 48.33 48.97 49.07 49.94 51.02 52.08 52.01 52.61 52.39 52.11 53.08 59.26 61.35 65.07 66.03 65.87 66.43 66.47 66.85 66.74 67.43 67.75 67.55 68.00 69.10 69.63 69.89 69.10 69.18 68.67 67.28 65.76 62.72
38.22 35.38 27.94 23.61 24.15 27.91 36.86 30.88 35.83 45.81 46.80 47.43 47.97 46.85 47.59 47.64 48.07 48.98 49.74 49.93 50.93 52.04 51.93 52.54 52.88 52.10 52.27 53.73 57.56 63.31 65.45 65.92 66.72 67.24 67.05 67.08 67.21 67.30 67.41 68.02 69.36 69.23 69.30 68.27 68.63 68.02 65.79 63.77 62.17
38.60 34.54 37.92 31.66 31.32 27.30 31.86 36.14 41.66 45.09 44.84 46.37 46.43 48.10 46.98 48.57 48.97 48.70 49.70 49.43 51.23 51.43 51.55 51.37 51.45 52.37 53.51 54.47 56.96 61.78 64.14 65.70 65.43 66.33 66.42 66.90 67.39 67.89 67.32 68.50 68.66 68.99 69.09 68.53 67.57 66.67 64.13 62.40 58.76
40.33 41.39 32.11 30.43 25.35 23.92 29.28 31.89 33.14 39.40 41.41 44.55 44.61 45.43 46.79 47.59 48.10 48.98 49.77 49.88 50.12 50.90 50.24 50.05 51.39 51.96 53.17 54.34 56.42 59.49 63.44 65.36 65.85 66.16 66.33 66.25 66.68 67.28 67.57 68.04 68.47 67.75 68.40 67.91 67.21 65.27 62.54 60.58 58.58
37.50 34.03 35.06 35.50 34.66 28.77 26.80 30.80 39.48 39.01 41.57 41.93 43.69 44.80 45.57 46.12 46.62 47.94 49.27 50.63 51.05 51.32 51.17 51.09 51.66 52.13 52.94 54.87 55.80 58.15 62.26 64.28 64.23 64.55 65.76 66.69 66.85 66.83 67.14 66.50 66.47 67.33 67.52 66.34 65.46 63.72 61.08 59.93 57.89
42.13 39.46 35.62 27.69 29.92 31.35 31.02 32.83 44.67 43.44 43.09 43.25 42.97 48.20 48.61 45.60 47.54 47.19 48.49 50.03 49.97 49.88 50.49 50.63 50.91 52.26 54.17 54.85 57.35 59.27 59.79 61.87 62.89 64.64 65.57 66.43 66.33 66.72 66.74 65.94 65.50 66.21 66.52 64.25 63.19 61.92 61.09 58.99 56.35
MSLP
1010.92 1010.55 1010.49 1010.82 1012.08 1012.57 1011.65 1009.70 1007.54 1005.86 1004.51 1003.74 1003.02 1003.28 1003.86 1003.92 1004.54 1005.66 1005.24 1005.38 1006.51 1007.61 1007.84 1008.49 1008.64 1008.90 1009.16 1009.43 1009.79 1009.97 1009.98 1010.29 1010.60 1011.40 1011.55 1011.62 1011.66 1011.64 1011.90 1012.03 1012.36 1012.62 1012.80 1012.82 1012.87 1012.93 1012.93 1012.97 1013.12
1010.94 1010.49 1010.82 1011.65 1012.67 1012.98 1011.46 1009.18 1007.54 1005.74 1003.90 1003.86 1003.50 1003.41 1003.84 1004.71 1004.36 1005.21 1005.58 1006.14 1006.21 1007.32 1007.72 1008.24 1008.63 1008.98 1009.26 1009.52 1009.82 1010.05 1010.29 1010.30 1010.48 1011.34 1011.62 1011.78 1012.02 1012.04 1012.09 1012.28 1012.44 1012.64 1012.83 1012.77 1012.84 1012.96 1013.07 1013.12 1013.33
1010.92 1010.88 1011.74 1012.43 1012.91 1012.75 1011.15 1008.82 1007.23 1005.48 1004.06 1003.08 1003.40 1003.45 1003.92 1004.48 1004.58 1004.98 1005.24 1006.26 1006.68 1007.28 1007.66 1007.97 1008.41 1008.84 1009.18 1009.49 1009.82 1010.12 1010.42 1010.56 1010.70 1011.08 1011.58 1011.73 1012.07 1012.29 1012.24 1012.32 1012.52 1012.66 1012.76 1012.82 1012.84 1012.94 1013.09 1013.15 1013.50
1011.08 1011.57 1012.39 1012.53 1012.66 1011.34 1010.13 1008.24 1007.09 1006.12 1004.07 1003.41 1003.50 1004.27 1004.39 1004.31 1004.44 1004.97 1005.83 1006.54 1007.17 1007.46 1007.72 1007.94 1008.10 1008.50 1008.94 1009.33 1009.70 1010.11 1010.34 1010.69 1010.88 1011.24 1011.46 1011.82 1012.06 1012.40 1012.59 1012.51 1012.54 1012.54 1012.58 1012.87 1012.94 1012.89 1013.07 1013.15 1013.46
1011.36 1012.27 1012.99 1013.00 1012.01 1010.71 1009.29 1007.66 1006.12 1005.80 1005.05 1004.39 1003.75 1005.15 1005.19 1005.14 1004.94 1005.46 1006.11 1006.59 1006.94 1007.82 1008.15 1008.46 1008.36 1008.60 1008.91 1009.26 1009.61 1010.00 1010.41 1010.65 1011.00 1011.24 1011.50 1011.55 1011.94 1012.30 1012.71 1012.74 1012.76 1012.75 1012.58 1012.69 1012.92 1012.83 1013.13 1013.48 1013.58
1012.04 1012.76 1013.46 1013.23 1011.82 1010.48 1009.00 1007.66 1006.21 1006.20 1005.66 1004.93 1005.15 1005.46 1006.01 1005.97 1005.51 1006.10 1005.85 1006.19 1006.61 1007.32 1008.02 1008.52 1008.81 1008.84 1009.09 1009.42 1009.66 1009.97 1010.33 1010.66 1011.10 1011.42 1011.58 1011.63 1011.76 1012.11 1012.52 1012.77 1012.89 1012.85 1012.78 1012.72 1012.82 1012.99 1013.31 1013.64 1013.76
1012.07 1013.07 1013.28 1012.62 1011.46 1010.53 1009.14 1007.55 1007.26 1006.99 1006.44 1005.82 1005.59 1005.97 1006.18 1005.61 1005.42 1005.76 1005.89 1006.43 1006.92 1007.42 1007.80 1008.26 1008.63 1008.83 1009.20 1009.50 1009.69 1009.97 1010.32 1010.68 1010.97 1011.32 1011.69 1011.82 1011.92 1012.29 1012.56 1012.73 1012.95 1013.08 1012.98 1012.96 1012.90 1013.09 1013.47 1013.84 1013.82
1011.58 1012.70 1012.88 1012.11 1011.34 1010.38 1009.11 1008.16 1007.72 1007.25 1006.90 1006.16 1006.04 1006.52 1006.52 1006.08 1005.62 1006.22 1006.62 1007.16 1007.49 1008.05 1007.90 1008.24 1008.55 1008.76 1009.05 1009.50 1009.81 1010.05 1010.33 1010.62 1010.88 1011.11 1011.40 1011.65 1011.64 1012.04 1012.47 1012.66 1012.70 1012.96 1012.92 1012.94 1013.05 1013.05 1013.32 1013.94 1014.06
1010.84 1012.26 1012.77 1011.91 1010.86 1010.14 1009.12 1008.65 1007.83 1007.20 1007.21 1006.72 1006.59 1006.62 1006.45 1006.20 1005.85 1006.52 1007.56 1007.88 1008.11 1008.34 1008.84 1008.99 1008.93 1008.94 1009.23 1009.36 1009.77 1010.14 1010.40 1010.72 1010.91 1011.04 1011.14 1011.42 1011.63 1011.86 1012.12 1012.47 1012.70 1012.82 1012.82 1012.94 1013.11 1013.12 1013.07 1013.88 1014.08
1010.95 1011.99 1011.78 1010.85 1010.04 1009.84 1009.35 1008.78 1008.36 1008.11 1007.64 1007.02 1006.55 1006.35 1006.56 1006.44 1006.32 1006.70 1007.90 1008.10 1008.37 1008.47 1008.56 1008.70 1008.94 1009.40 1009.27 1009.30 1009.49 1009.84 1010.32 1010.70 1010.98 1011.18 1011.30 1011.31 1011.50 1011.78 1012.00 1012.34 1012.62 1012.72 1012.80 1012.93 1013.04 1013.06 1013.04 1013.35 1013.92
1010.69 1011.07 1010.48 1010.15 1009.56 1009.25 1009.18 1008.75 1008.38 1008.37 1008.34 1007.84 1007.36 1006.80 1006.45 1006.48 1006.56 1006.60 1006.76 1007.78 1007.58 1007.91 1008.47 1008.65 1008.78 1008.96 1009.43 1009.41 1009.64 1009.67 1010.05 1010.60 1010.84 1011.12 1011.43 1011.62 1011.64 1011.72 1011.78 1012.22 1012.46 1012.62 1012.68 1012.98 1012.96 1012.96 1013.01 1012.94 1014.00
1010.91 1010.53 1010.31 1009.87 1009.40 1009.42 1009.17 1008.85 1008.49 1008.17 1007.97 1007.40 1006.97 1006.68 1006.46 1006.40 1006.48 1006.39 1006.50 1006.66 1007.21 1007.54 1008.02 1008.50 1008.78 1009.00 1009.10 1009.15 1009.49 1009.69 1010.11 1010.34 1010.81 1011.02 1011.31 1011.71 1011.94 1011.98 1011.98 1012.13 1012.17 1012.36 1012.42 1012.78 1012.83 1012.83 1012.74 1013.02 1013.35
1010.83 1010.61 1010.05 1009.64 1009.52 1009.38 1008.86 1008.52 1008.41 1007.99 1007.32 1006.92 1006.70 1006.40 1006.18 1006.22 1006.24 1006.04 1006.04 1006.27 1006.94 1007.43 1008.00 1008.27 1008.72 1009.12 1009.24 1009.46 1009.50 1009.58 1009.90 1010.29 1010.28 1010.59 1010.92 1011.36 1011.83 1011.90 1011.87 1012.00 1012.08 1012.10 1012.20 1012.56 1012.66 1012.76 1012.59 1012.74 1012.90
1010.97 1010.59 1010.30 1009.90 1009.58 1008.89 1008.90 1008.46 1008.54 1007.60 1006.88 1006.65 1006.45 1006.28 1006.00 1005.94 1005.77 1005.94 1005.96 1006.16 1006.98 1007.14 1007.46 1007.94 1008.38 1008.52 1008.75 1009.04 1009.25 1009.31 1009.45 1009.58 1009.87 1010.20 1010.40 1010.90 1011.23 1011.64 1011.86 1012.10 1012.09 1012.07 1012.03 1012.14 1012.30 1012.40 1012.55 1012.82 1013.24
1011.14 1011.21 1010.30 1009.81 1009.44 1008.94 1008.62 1008.82 1008.36 1007.24 1006.75 1006.76 1006.17 1005.88 1005.83 1005.77 1005.81 1005.96 1006.08 1006.11 1006.67 1007.14 1007.21 1007.55 1007.88 1008.34 1008.65 1008.95 1009.10 1009.22 1009.25 1009.25 1009.78 1009.68 1009.95 1010.31 1010.81 1011.12 1011.53 1011.76 1011.84 1011.68 1011.73 1011.95 1012.12 1012.22 1012.18 1012.87 1013.36
1011.66 1011.56 1011.48 1010.11 1009.54 1008.66 1008.79 1008.82 1007.91 1007.27 1007.18 1006.98 1006.18 1005.82 1005.61 1005.50 1005.68 1005.75 1005.88 1005.87 1006.04 1006.86 1007.40 1007.42 1007.62 1008.04 1008.49 1008.76 1008.94 1009.16 1009.30 1009.28 1009.35 1009.39 1009.56 1009.70 1010.16 1010.59 1011.09 1011.41 1011.48 1011.28 1011.66 1011.90 1012.08 1012.24 1012.55 1012.90 1013.22
1012.32 1012.20 1011.73 1010.84 1009.58 1009.30 1009.16 1008.97 1008.28 1007.65 1007.66 1007.20 1006.64 1006.12 1005.77 1005.50 1005.48 1005.50 1005.36 1005.36 1005.71 1006.00 1006.74 1007.26 1007.42 1007.60 1008.08 1008.51 1008.59 1008.92 1009.28 1009.52 1009.53 1009.31 1009.14 1009.36 1009.72 1010.03 1010.54 1011.02 1011.06 1011.02 1011.57 1011.81 1011.94 1012.42 1012.60 1013.03 1013.46
1012.46 1012.06 1011.47 1010.85 1009.79 1009.43 1009.28 1008.93 1008.34 1007.60 1007.23 1006.96 1006.68 1006.34 1006.03 1005.80 1005.36 1005.02 1005.19 1005.20 1005.33 1005.81 1006.20 1006.24 1006.66 1006.99 1007.37 1007.82 1008.13 1008.46 1008.87 1009.10 1009.09 1009.32 1009.16 1008.99 1009.30 1009.60 1009.91 1010.46 1010.75 1010.83 1011.42 1011.72 1011.96 1012.23 1012.59 1012.60 1012.99
1011.30 1011.39 1011.28 1010.64 1010.00 1009.93 1009.63 1009.00 1008.06 1007.38 1007.03 1006.64 1006.31 1005.99 1005.58 1005.34 1004.77 1004.66 1004.88 1004.92 1005.23 1005.60 1006.06 1006.35 1006.50 1006.62 1007.03 1007.69 1008.13 1008.30 1008.52 1008.54 1008.52 1008.62 1008.59 1008.92 1008.94 1009.15 1009.53 1009.88 1010.28 1010.63 1010.99 1011.35 1011.54 1012.14 1012.54 1013.08 1013.28
1010.76 1011.05 1011.13 1010.68 1010.28 1010.06 1009.51 1008.60 1007.74 1007.00 1006.62 1006.30 1005.92 1005.18 1004.62 1004.65 1004.62 1004.54 1004.75 1005.09 1005.43 1005.62 1006.03 1006.21 1006.33 1006.32 1006.58 1006.62 1006.82 1007.14 1007.41 1007.54 1007.73 1008.16 1008.39 1008.32 1008.61 1008.73 1009.06 1009.38 1009.91 1010.39 1010.58 1010.96 1011.14 1011.63 1012.58 1013.06 1013.40
1010.49 1010.84 1011.01 1010.90 1010.32 1010.20 1009.73 1008.70 1007.65 1006.63 1006.11 1005.66 1005.22 1004.35 1003.96 1004.19 1004.49 1004.48 1004.68 1004.88 1005.32 1005.69 1005.67 1005.88 1006.13 1006.19 1006.10 1006.11 1006.42 1006.95 1007.12 1007.28 1007.50 1007.86 1008.21 1008.51 1008.31 1008.27 1008.62 1008.81 1009.34 1009.92 1010.32 1010.78 1010.90 1011.30 1011.83 1012.78 1013.41
1010.18 1010.24 1010.62 1010.91 1011.26 1011.32 1010.90 1009.73 1008.18 1006.97 1006.42 1005.88 1004.90 1004.70 1004.00 1004.20 1004.35 1004.51 1004.78 1004.94 1005.35 1005.54 1005.50 1005.72 1006.01 1006.31 1006.29 1005.86 1006.03 1006.38 1006.69 1007.01 1006.85 1007.03 1007.32 1007.60 1008.21 1008.62 1008.44 1008.70 1008.78 1009.39 1009.98 1010.31 1010.41 1010.83 1011.32 1012.01 1013.16
1009.79 1009.96 1010.66 1011.25 1011.77 1011.99 1011.38 1011.22 1008.66 1007.85 1006.89 1006.15 1005.66 1005.38 1004.77 1004.74 1004.64 1004.77 1004.77 1004.90 1005.28 1005.80 1006.02 1006.00 1006.00 1006.02 1005.81 1005.72 1005.88 1005.89 1006.09 1006.14 1006.31 1006.82 1007.06 1007.12 1007.48 1008.02 1008.30 1008.46 1009.00 1008.92 1009.62 1009.84 1010.00 1010.53 1011.01 1011.52 1012.32
1009.45 1010.38 1011.06 1011.54 1012.16 1012.53 1011.89 1011.43 1009.45 1008.40 1007.67 1006.94 1006.56 1006.14 1005.93 1006.04 1005.88 1006.02 1006.00 1005.74 1006.12 1006.21 1006.04 1005.70 1005.82 1005.89 1005.67 1005.77 1005.75 1005.79 1005.69 1005.59 1006.11 1006.54 1006.83 1006.96 1007.10 1007.42 1007.86 1008.55 1008.86 1008.83 1009.14 1009.46 1009.64 1009.80 1010.40 1011.12 1011.54
1010.00 1011.48 1012.88 1013.39 1013.46 1013.02 1011.88 1011.35 1009.48 1008.46 1007.58 1007.14 1007.03 1006.78 1006.91 1006.99 1006.84 1006.63 1006.55 1006.56 1006.29 1006.16 1006.03 1005.90 1005.83 1005.74 1005.61 1005.61 1005.48 1005.55 1005.42 1005.38 1005.58 1005.99 1006.24 1006.30 1006.52 1006.79 1006.88 1007.57 1008.13 1008.64 1008.34 1008.80 1009.30 1009.59 1010.08 1010.64 1011.31
1010.69 1011.91 1013.60 1014.12 1014.27 1013.31 1012.31 1010.98 1008.84 1007.84 1007.14 1006.70 1006.50 1006.56 1006.74 1007.04 1007.05 1006.79 1006.63 1006.52 1006.37 1006.19 1006.02 1006.00 1005.81 1005.70 1005.24 1005.32 1005.15 1004.81 1004.54 1004.36 1004.53 1004.78 1005.22 1005.28 1005.64 1006.06 1006.10 1006.80 1007.24 1007.18 1007.46 1008.42 1008.98 1009.38 1009.92 1010.11 1010.89
1010.89 1011.80 1012.30 1013.59 1013.79 1013.46 1011.97 1010.29 1008.56 1007.66 1007.28 1006.79 1006.58 1006.60 1006.59 1006.67 1006.76 1006.49 1006.60 1006.55 1006.34 1006.12 1006.04 1005.88 1005.69 1005.30 1005.18 1005.07 1004.74 1004.36 1003.81 1003.86 1003.78 1003.69 1004.16 1004.37 1004.41 1004.80 1005.49 1005.62 1006.10 1007.00 1007.14 1007.86 1008.56 1008.99 1009.81 1010.07 1010.78
1010.76 1011.70 1012.64 1013.78 1013.97 1013.20 1011.45 1010.15 1008.62 1007.84 1007.25 1006.79 1006.59 1006.43 1006.28 1005.97 1006.02 1005.93 1006.03 1005.90 1006.06 1006.16 1006.06 1006.04 1006.09 1005.76 1005.24 1004.62 1004.39 1004.00 1003.51 1003.11 1002.67 1002.78 1003.20 1003.56 1003.52 1003.83 1004.28 1004.74 1005.32 1006.07 1007.35 1007.69 1007.92 1008.46 1009.49 1009.90 1010.37
1011.04 1011.70 1012.50 1013.28 1013.58 1012.86 1011.70 1009.55 1007.78 1007.52 1007.19 1006.61 1006.17 1005.82 1005.77 1005.46 1005.56 1005.43 1005.29 1005.31 1005.42 1005.44 1005.39 1005.43 1005.45 1005.20 1004.91 1004.40 1003.89 1003.58 1002.98 1002.54 1002.22 1001.98 1002.14 1002.42 1002.77 1003.07 1003.20 1003.62 1004.74 1006.20 1006.74 1007.30 1007.44 1008.40 1009.22 1009.71 1010.10
1010.97 1011.50 1012.48 1013.72 1013.18 1012.62 1011.34 1008.21 1007.08 1006.91 1006.78 1006.25 1005.62 1004.92 1004.52 1004.53 1004.45 1005.01 1005.20 1005.23 1005.37 1005.40 1005.29 1005.03 1004.94 1005.01 1004.59 1004.25 1003.80 1003.33 1002.73 1001.95 1001.85 1001.36 1001.30 1001.65 1002.09 1002.43 1002.41 1003.07 1003.88 1005.61 1006.13 1006.72 1007.06 1007.96 1008.62 1009.18 1009.76
Wind_Speed
7 7 1 4 6 6 4 7 4 8 3 6 9 10 7 5 4 5 3 16 18 14 14 13 16 17 17 17 16 16 19 19 17 13 14 13 13 15 14 14 12 11 10 8 6 3 2 4 6
4 4 4 2 6 3 7 6 5 6 4 7 14 14 11 9 5 10 5 11 22 16 14 14 18 17 17 16 16 15 15 18 18 15 14 14 12 12 13 12 12 11 9 7 5 2 1 3 5
3 1 4 4 4 5 5 5 9 14 9 4 6 7 5 3 3 4 9 17 17 15 13 15 20 18 18 17 16 15 15 16 16 17 15 15 13 10 11 11 11 11 10 7 5 2 2 2 6
3 5 5 5 5 9 6 12 7 7 7 9 7 8 5 2 3 8 16 15 12 11 10 18 21 21 20 19 17 16 16 15 15 16 16 14 13 10 8 10 10 11 10 7 5 4 5 1 6
4 3 4 1 7 6 6 9 13 8 2 6 2 5 6 7 7 18 16 15 15 9 7 10 18 19 19 19 19 18 16 16 15 15 15 15 13 11 8 8 9 9 10 8 6 6 5 3 6
4 4 5 2 5 6 9 8 5 5 5 8 9 5 4 4 9 7 11 14 14 15 11 10 14 17 18 18 19 18 17 16 15 14 14 14 14 12 10 9 8 8 8 8 7 6 4 3 5
5 5 3 4 5 6 6 10 8 5 6 7 1 5 1 11 6 4 9 10 12 12 14 11 11 14 17 17 18 18 17 17 16 14 12 12 11 10 9 9 8 7 7 7 7 6 4 1 3
5 5 2 3 4 6 6 6 4 9 4 5 2 4 4 6 8 9 8 8 8 5 10 11 10 11 12 11 17 17 18 18 17 16 15 13 14 12 10 10 9 9 9 8 8 6 6 2 1
4 5 2 4 5 7 7 7 9 5 5 4 3 4 2 1 7 12 7 5 6 7 3 3 10 11 9 10 12 14 16 15 16 15 16 12 5 7 9 9 10 10 10 9 8 8 9 3 4
5 5 7 7 4 4 4 5 5 7 11 8 9 8 5 6 6 7 8 6 5 6 8 9 10 9 9 9 11 9 9 6 6 5 7 5 6 6 7 8 11 11 10 9 8 8 10 5 3
4 6 6 5 5 5 2 2 4 3 5 7 8 10 8 3 5 6 6 9 11 10 7 8 9 10 8 7 7 5 4 4 4 5 4 3 4 4 4 3 4 4 8 3 5 4 4 6 5
2 2 2 5 4 4 7 3 6 3 9 8 9 7 5 5 2 4 2 5 3 12 11 8 8 8 7 6 7 6 6 6 4 5 6 4 3 4 4 4 5 5 4 5 5 3 4 4 4
2 4 9 9 8 7 6 7 5 7 11 9 10 10 10 3 5 3 2 2 6 9 9 9 8 6 5 7 5 7 7 7 7 6 7 5 5 5 4 4 4 5 4 4 4 4 3 3 4
4 8 10 7 12 8 5 10 4 12 11 9 8 11 9 7 4 2 4 4 5 10 12 12 12 11 8 9 7 8 7 8 8 7 7 8 5 4 5 5 5 4 5 4 4 4 4 4 6
3 8 10 5 7 4 3 6 10 16 9 9 9 6 4 3 3 6 3 2 6 5 10 12 11 7 7 7 8 5 7 8 8 8 10 10 8 6 6 5 5 6 5 4 4 4 4 5 5
5 4 4 9 6 4 6 8 10 11 6 10 8 8 8 7 8 7 8 6 4 9 8 8 9 10 7 7 6 4 4 4 6 7 8 11 10 9 6 5 5 5 4 4 3 5 5 5 5
6 2 4 8 6 5 1 7 9 11 8 10 8 9 8 9 7 8 9 10 9 9 11 10 8 9 9 7 5 5 5 4 4 4 6 9 11 10 7 6 6 5 3 4 5 2 6 5 3
5 4 4 7 7 9 7 7 7 8 7 9 8 8 9 9 11 10 10 9 8 8 8 10 10 9 9 7 5 3 4 5 5 5 5 9 9 10 8 5 6 5 4 4 4 5 2 4 6
3 3 6 7 10 4 5 9 12 9 7 10 9 9 9 11 12 10 9 9 9 6 7 8 8 9 5 3 3 3 5 4 5 7 10 9 8 10 9 7 5 5 6 7 8 4 5 2 3
4 5 7 5 4 6 9 18 16 14 9 6 10 17 14 6 7 8 5 4 4 5 7 6 8 8 6 4 3 4 4 4 3 2 3 10 11 11 10 8 6 6 4 6 7 6 3 2 4
3 2 4 8 5 3 7 10 5 10 6 5 7 7 6 9 8 6 7 7 5 7 8 8 9 10 9 8 3 2 3 2 1 3 3 5 10 13 10 10 7 6 5 7 8 7 7 5 3
4 4 5 8 7 5 4 9 8 5 7 5 7 8 4 7 6 5 6 5 5 3 4 5 7 7 8 7 6 8 8 7 5 7 7 6 5 5 5 4 7 7 5 6 8 6 4 5 6
7 4 4 5 7 3 5 2 8 5 5 7 10 9 8 6 1 3 4 2 5 6 6 5 2 4 8 8 8 8 6 7 5 3 6 9 6 5 5 1 6 7 5 6 9 7 6 4 5
3 3 6 4 3 1 6 3 7 4 5 4 6 9 10 9 9 8 7 8 6 3 1 2 3 3 4 7 7 8 10 8 6 6 7 7 8 10 11 12 8 7 7 7 8 8 9 6 5
8 8 5 6 5 6 5 5 9 2 5 4 4 8 7 5 6 5 6 5 5 7 6 4 3 7 7 6 6 7 8 9 9 8 8 9 8 8 13 15 12 11 9 8 8 8 7 7 6
4 7 6 4 4 6 5 6 7 8 6 7 5 6 6 6 4 4 2 2 4 6 6 8 9 8 7 6 8 7 10 8 10 11 10 8 9 11 15 14 12 13 9 8 7 6 5 6 6
4 5 7 4 4 2 6 6 8 5 6 5 2 4 5 5 7 7 7 5 5 4 6 7 7 8 9 9 8 8 7 9 10 9 9 9 12 12 15 14 11 10 9 12 10 7 7 6 5
5 3 5 3 4 6 5 5 7 5 3 6 6 8 9 9 9 8 6 7 7 7 5 5 7 8 9 9 8 8 8 10 10 8 10 11 13 14 16 14 13 12 12 12 12 8 7 8 5
6 3 3 2 4 5 4 8 8 7 9 9 9 9 11 11 9 9 8 6 5 4 5 6 5 7 8 8 9 8 7 8 8 8 11 13 13 16 17 14 15 13 16 12 11 9 10 10 8
7 12 5 4 8 5 4 12 7 7 9 9 10 19 16 11 10 6 5 4 3 5 6 7 6 6 7 7 8 8 7 6 7 9 11 13 14 15 16 16 17 13 15 11 11 12 11 12 11
Wind_Direction
320 303 44 38 51 61 276 276 263 288 265 6 67 92 122 75 144 192 72 174 133 153 149 153 151 146 142 138 138 137 132 126 120 120 115 108 108 112 116 119 119 122 124 123 117 107 62 22 37
318 337 44 74 83 34 274 263 303 291 255 130 95 86 57 72 59 104 90 146 144 151 149 153 153 150 144 141 141 138 136 131 130 130 126 119 116 120 123 123 126 129 134 137 135 138 349 350 33
290 77 81 93 110 187 227 280 295 309 311 355 99 94 103 122 46 99 132 149 146 150 154 155 153 150 147 144 142 141 139 137 134 136 135 132 131 133 130 131 135 138 145 154 156 180 259 318 35
27 16 24 87 247 254 233 280 312 291 317 360 132 73 40 349 104 139 135 142 140 143 155 158 155 153 151 148 146 144 143 144 140 142 143 142 139 136 140 144 147 151 152 166 179 214 249 0 42
39 59 60 22 268 276 281 256 258 254 74 355 42 60 75 2 79 130 142 150 149 134 142 158 153 152 152 151 149 149 150 148 150 152 152 148 146 145 156 157 159 158 158 172 203 224 251 27 40
29 92 60 248 269 305 299 313 329 85 7 357 47 84 70 268 55 102 173 157 147 143 146 155 157 153 154 155 155 155 155 155 157 160 157 153 151 156 164 167 171 169 176 187 213 240 256 43 54
119 86 210 269 273 337 326 327 24 31 20 6 132 101 168 16 334 116 119 132 139 144 147 156 160 159 160 161 159 159 160 161 159 158 160 155 151 159 169 168 175 190 196 209 226 249 264 350 86
109 92 317 276 321 280 314 5 344 22 30 315 48 35 318 275 333 86 84 90 103 118 147 152 158 160 158 162 164 165 167 165 164 161 161 168 162 167 179 183 184 197 206 220 238 251 254 218 149
101 60 302 265 4 280 311 25 334 299 50 336 21 145 265 358 45 68 77 71 97 119 111 146 160 164 160 157 166 167 172 173 171 169 170 169 164 173 181 190 199 205 212 227 238 256 267 194 206
101 113 231 209 272 281 307 22 338 13 344 337 342 346 44 29 59 44 119 182 172 159 171 167 161 175 165 166 166 160 172 172 175 180 181 172 168 173 180 195 209 216 224 233 240 248 271 274 194
195 199 200 256 250 343 319 302 309 30 322 279 277 302 317 7 52 55 353 148 200 190 171 182 171 166 180 169 170 163 157 171 170 168 181 188 179 189 178 183 207 210 231 235 245 247 249 267 138
294 199 224 276 4 347 307 275 317 247 247 240 266 256 277 336 247 140 54 0 115 168 173 177 174 177 180 153 168 169 169 171 172 184 181 168 190 199 205 198 197 204 212 216 228 228 245 250 189
80 317 335 320 302 277 287 285 260 268 264 263 272 284 280 265 234 269 183 3 122 129 156 166 166 176 185 165 171 168 177 184 189 189 190 178 201 205 196 211 196 209 201 211 226 217 250 241 136
306 324 301 300 298 272 252 279 56 277 268 276 270 270 269 247 219 300 335 291 155 147 158 166 183 190 180 181 187 183 185 189 184 192 193 195 196 197 196 212 213 215 207 214 212 196 195 158 142
283 314 320 303 290 291 140 314 252 258 285 300 275 202 202 254 258 203 202 164 160 175 170 178 185 177 175 187 188 192 191 186 198 198 198 193 199 198 201 208 220 221 215 200 236 200 134 132 148
296 70 1 292 340 273 119 265 280 273 301 253 222 218 210 211 215 209 186 175 201 136 186 182 189 191 180 190 198 204 206 206 199 206 200 197 204 204 205 201 216 223 201 198 181 166 145 148 158
10 246 290 311 286 278 209 266 279 303 304 274 264 259 231 231 229 231 223 198 189 173 165 190 197 194 189 211 186 190 207 221 247 206 204 202 206 208 192 208 210 219 196 192 157 154 157 154 146
253 274 276 286 276 343 324 281 288 291 307 283 277 261 252 253 236 224 226 232 215 195 184 172 185 197 185 189 181 191 208 227 204 224 211 216 206 207 194 198 203 188 161 198 172 159 159 164 153
239 253 267 272 302 341 267 284 297 277 289 282 277 258 233 237 240 233 226 226 217 213 206 196 182 200 162 153 177 186 204 213 222 219 210 217 211 209 200 199 195 190 184 178 173 142 150 94 121
297 297 299 290 286 331 312 293 290 283 264 263 278 275 249 223 225 232 217 169 180 225 227 231 215 216 199 182 178 170 173 213 179 180 220 210 200 211 206 191 194 202 174 168 160 150 127 99 167
299 242 275 277 294 310 297 292 274 293 282 255 275 309 240 222 222 185 154 176 167 198 209 215 221 219 216 213 147 88 46 25 181 186 183 228 218 207 207 186 181 186 183 180 172 162 151 146 196
222 227 284 304 346 302 52 289 331 285 296 257 315 332 227 191 192 177 198 199 157 194 185 195 219 236 270 233 193 188 198 203 209 218 218 199 205 235 211 218 174 176 186 185 176 173 155 128 168
230 239 269 276 251 36 315 39 273 314 329 327 329 334 27 353 166 242 246 173 103 61 40 33 17 253 242 230 225 210 203 202 198 183 202 214 191 224 202 269 242 181 195 195 176 162 156 160 149
252 5 336 330 110 74 194 193 280 305 299 323 356 354 39 37 51 45 39 53 31 21 39 343 356 317 275 245 242 225 217 203 194 194 206 207 208 208 222 209 228 222 191 190 189 177 166 167 155
36 48 337 346 3 221 297 9 243 270 247 180 103 70 89 56 46 36 49 43 18 10 4 333 300 313 317 285 248 227 228 217 212 216 216 208 200 214 206 208 210 224 198 196 195 172 163 166 167
265 156 162 255 231 256 298 239 255 216 244 265 139 142 155 162 183 169 169 16 5 359 350 342 330 311 311 288 269 246 238 217 218 213 209 219 203 206 201 202 208 223 173 191 189 175 177 169 170
292 291 209 210 246 350 225 283 316 227 256 192 274 196 214 225 209 181 210 231 258 273 291 303 300 314 312 293 283 282 267 231 224 201 210 221 205 206 207 194 196 242 188 188 187 167 180 153 154
157 242 310 357 299 249 272 236 228 245 215 185 201 226 245 226 219 217 219 210 207 238 253 269 285 275 286 297 284 271 244 245 221 204 198 211 209 198 197 185 177 209 236 190 180 162 174 158 142
313 287 247 249 223 239 241 254 225 216 221 245 239 243 246 243 225 210 201 201 226 308 323 303 313 321 312 318 304 284 271 250 233 205 212 200 196 200 192 177 182 202 206 193 167 165 166 152 140
228 262 182 172 278 263 264 262 231 271 277 274 262 297 299 225 214 186 171 176 229 255 280 296 302 296 303 294 292 287 288 262 234 201 205 201 194 196 179 175 179 208 201 179 162 168 170 153 152